METEOR 2-8 DEB

Satellite information

Favourite Embed

Satellite Type and Status

DEBRISIN ORBIT

Key statistics

Satellite METEOR 2-8 DEB at a glance.

Uptime

15810

Days in orbit

Revolutions

≈ 14.2

Per day

Orbit

LEO

Low Earth Orbit

Inclination

82.5

Latest

Satellite identification and parameters

Extended collection of information and parameters for METEOR 2-8 DEB.

Object identification

Identified? True

Debris? True

Object name: METEOR 2-8 DEB

International designator: 1982-025AC

Object number (NORAD): 36342

Object ID (CCSDS): 36342

Country: COMMONWEALTH OF INDEPENDENT STATES (CIS)

Current information (Y/N): Y

RCS size: SMALL

Orbital parameters

Period: 101.693 minutes

Inclination: 82.5352 deg

SMA: 7216.972 km

Apoapsis: 856.228 km

Periapsis: 821.446 km

RAAN: 196.6335 deg

Eccentricy: 0.0024097

Argument of periapsis: 195.9906 deg

Mean anomaly: 164.0514 deg

Mean motion: 14.16022796 rev/day

Mean motion (dot): 0.00001581 rev/day2

B* drag term: 0.00079158 1/REarth

Two-line elements (TLE)

Creation date: July 1, 2025, 2:15 a.m.

Reference frame: TEME

Reference center: EARTH

Epoch: June 30, 2025, 5:36 p.m. UTC

TLE line 0: 0 METEOR 2-8 DEB

TLE line 1: 1 36342U 82025AC 25181.73354041 .00001581 00000-0 79158-3 0 9997

TLE line 2: 2 36342 82.5352 196.6335 0024097 195.9906 164.0514 14.16022796616708

Live tracking on map

Real-time ground track for satellite METEOR 2-8 DEB.

In-orbit conjunctions

A list of the most updated potential collisions computed for object METEOR 2-8 DEB.

Target Orbit TCA Probability of collision Miss distance Type
FENGYUN 1C DEB SSO 2025-04-01 11:55:58 0.0001084475 101.0 (m) DEBRIS
FENGYUN 1C DEB SSO 2025-03-18 14:41:06 0.0001380286 25.0 (m) DEBRIS

Associated space launch

Second generation soviet meteorological satellite

METEOR 2-8 DEB was lifted into orbit during the mission ‘Tsiklon-3 | Meteor-2 8’, on board a Tsiklon-3 space rocket.

The launch took place on March 25, 1982, 9:50 a.m. from 32/1.

For more information about the launch, click the button.

Launch to space Tsiklon-3 | Meteor-2 8
Tsiklon-3 | Meteor-2 8

Agency: N/A

Status: Launch Successful

Launch date: March 25, 1982, 9:50 a.m. UTC

Rocket: Tsiklon-3

Launch pad: 32/1

Location: Plesetsk Cosmodrome, Russian Federation

...

Latest news about this satellite

There are no fresh news available about this satellite. Check back as we update our databases every day.


Newsletter sign-up

Weekly statistics, charts and insights to help you stay on top of the space industry.